sat.trackr.live / text

‹ back to catalog

STARLINK-30997

NORAD 58482 · 2023-186K

PAYLOAD ACTIVE UNKNOWN

§ Identity

Operator
Country
US
Launch date
2023-12-03
Launch site
AFETR
Launch vehicle
Mass (kg)
RCS (m²)

Purposes: comms

External: N2YO · Heavens-Above · Gunter

§ Orbital elements

Epoch: 2026-05-24T20:29:33.204192Z

Period
94.27 min
Inclination
43.0005°
Eccentricity
0.0001345
Mean motion
15.27588839 rev/d
Perigee alt
482.1 km
Apogee alt
483.9 km
Semi-major
6,861.2 km
B*
4.6205e-4
RAAN
353.5571°
Arg perigee
268.5898°
Mean anomaly
91.4799°
Rev number
13,754

§ Raw data

STARLINK-309971 58482U 23186K   26144.85385653  .00012477  00000+0  46205-3 0  99972 58482  43.0005 353.5571 0001345 268.5898  91.4799 15.27588839137544

JSON: /api/v1/satellites/58482 · /tle

For live sub-satellite position, see the globe view (requires WebGL).

§ Visibility from observer

Set your observer location to see the next 7 days of passes ≥ 10°. The values pass through the URL so the page stays shareable.

No JS? Fill the form by hand. The geolocation button needs JavaScript.